DLH1390 LPMA-EDDF

Flight info

Callsign DLH1390
Flight time 3h 21m
Altitude 35000
Route DEGU1E DEGUN DEMOS LOTEE AZFIC ERIGA MOKOR UN741 NTS GONEK TABOV TSU OQQAL RANUX VALEK LUTAX DIK T856 NIVNU T847 IMCOM IMCO1C
Aircraft A359/H-V/N

Departure

Time 2026-04-14 10:45
Airport Cristiano Ronaldo International Airport (LPMA)

Arrival

Time 2026-04-14 14:06
Airport Frankfurt Main Airport (EDDF)
Time Latitude Longitude Altitude Speed Heading
2026-04-14 10:29 32.69544 -16.77396 170 ft 0 kts 137°
2026-04-14 10:34 32.69529 -16.77380 165 ft 1 kts 137°
2026-04-14 10:34 32.69540 -16.77391 169 ft 2 kts 137°
2026-04-14 10:34 32.69551 -16.77404 172 ft 2 kts 137°
2026-04-14 10:35 32.69562 -16.77416 176 ft 2 kts 137°
2026-04-14 10:35 32.69573 -16.77428 180 ft 2 kts 137°
2026-04-14 10:35 32.69585 -16.77441 183 ft 2 kts 137°
2026-04-14 10:35 32.69601 -16.77451 188 ft 2 kts 178°
2026-04-14 10:36 32.69616 -16.77448 189 ft 2 kts 206°
2026-04-14 10:36 32.69626 -16.77440 190 ft 0 kts 226°
2026-04-14 10:36 32.69626 -16.77439 190 ft 0 kts 227°
2026-04-14 10:38 32.69625 -16.77440 189 ft 0 kts 227°
2026-04-14 10:38 32.69619 -16.77447 190 ft 2 kts 228°
2026-04-14 10:39 32.69603 -16.77468 190 ft 5 kts 227°
2026-04-14 10:39 32.69570 -16.77509 191 ft 9 kts 227°
2026-04-14 10:39 32.69503 -16.77591 191 ft 17 kts 226°
2026-04-14 10:39 32.69397 -16.77722 187 ft 26 kts 226°
2026-04-14 10:40 32.69302 -16.77837 178 ft 7 kts 234°
2026-04-14 10:40 32.69292 -16.77863 178 ft 0 kts 258°
2026-04-14 10:40 32.69291 -16.77869 178 ft 1 kts 263°
2026-04-14 10:41 32.69288 -16.77897 179 ft 4 kts 264°
2026-04-14 10:41 32.69285 -16.77944 182 ft 6 kts 268°
2026-04-14 10:41 32.69284 -16.78007 184 ft 8 kts 263°
2026-04-14 10:41 32.69233 -16.78098 178 ft 19 kts 227°
2026-04-14 10:42 32.69114 -16.78245 163 ft 29 kts 226°
2026-04-14 10:42 32.68976 -16.78368 147 ft 20 kts 207°
2026-04-14 10:42 32.68891 -16.78461 137 ft 15 kts 289°
2026-04-14 10:42 32.68943 -16.78441 143 ft 7 kts 54°
2026-04-14 10:43 32.68948 -16.78434 144 ft 0 kts 51°
2026-04-14 10:43 32.69034 -16.78327 155 ft 37 kts 45°
2026-04-14 10:43 32.69310 -16.78008 189 ft 71 kts 44°
2026-04-14 10:43 32.69760 -16.77476 217 ft 104 kts 44°
2026-04-14 10:44 32.70367 -16.76769 181 ft 136 kts 44°
2026-04-14 10:44 32.71080 -16.75912 314 ft 147 kts 44°
2026-04-14 10:44 32.71780 -16.75051 552 ft 154 kts 45°
2026-04-14 10:44 32.72617 -16.74040 612 ft 184 kts 44°
2026-04-14 10:45 32.73632 -16.72891 878 ft 212 kts 43°
2026-04-14 10:45 32.74662 -16.71507 1168 ft 238 kts 61°
2026-04-14 10:45 32.74994 -16.69492 1602 ft 263 kts 93°
2026-04-14 10:45 32.74382 -16.67282 1658 ft 308 kts 120°
2026-04-14 10:46 32.72783 -16.65428 2637 ft 335 kts 144°
2026-04-14 10:46 32.70583 -16.64439 3918 ft 350 kts 166°
2026-04-14 10:46 32.68206 -16.63540 5500 ft 346 kts 148°
2026-04-14 10:46 32.66363 -16.61747 6803 ft 349 kts 127°
2026-04-14 10:47 32.65187 -16.59233 8076 ft 355 kts 108°
2026-04-14 10:47 32.64182 -16.56490 9708 ft 359 kts 114°
2026-04-14 10:47 32.63098 -16.53744 11007 ft 368 kts 110°
2026-04-14 10:47 32.62583 -16.50762 12224 ft 374 kts 90°
2026-04-14 10:48 32.62999 -16.47693 13411 ft 379 kts 70°
2026-04-14 10:48 32.64287 -16.44961 14530 ft 386 kts 50°
2026-04-14 10:48 32.66302 -16.42875 15610 ft 391 kts 31°
2026-04-14 10:48 32.68551 -16.41050 16620 ft 397 kts 39°
2026-04-14 10:49 32.70673 -16.38930 17593 ft 403 kts 39°
2026-04-14 10:49 32.72805 -16.36769 18483 ft 410 kts 39°
2026-04-14 10:49 32.74982 -16.34557 19340 ft 416 kts 40°
2026-04-14 10:49 32.77213 -16.32287 20143 ft 423 kts 40°
2026-04-14 10:50 32.79436 -16.30024 20894 ft 430 kts 40°
2026-04-14 10:50 32.81739 -16.27679 21653 ft 436 kts 40°
2026-04-14 10:50 32.84062 -16.25310 22367 ft 441 kts 40°
2026-04-14 10:50 32.86457 -16.22869 23086 ft 446 kts 40°
2026-04-14 10:51 32.88857 -16.20423 23810 ft 450 kts 40°
2026-04-14 10:51 32.91241 -16.17989 24500 ft 454 kts 40°
2026-04-14 10:51 32.93692 -16.15483 25177 ft 459 kts 40°
2026-04-14 10:51 32.96131 -16.12987 25785 ft 463 kts 40°
2026-04-14 10:52 32.98626 -16.10432 26368 ft 468 kts 40°
2026-04-14 10:52 33.01141 -16.07855 26926 ft 473 kts 40°
2026-04-14 10:52 33.03672 -16.05259 27499 ft 476 kts 40°
2026-04-14 10:52 33.06202 -16.02664 28053 ft 479 kts 40°
2026-04-14 10:53 33.08758 -16.00038 28556 ft 483 kts 40°
2026-04-14 10:53 33.11303 -15.97422 28968 ft 487 kts 40°
2026-04-14 10:53 33.13858 -15.94792 29395 ft 489 kts 40°
2026-04-14 10:53 33.16450 -15.92124 29595 ft 496 kts 40°
2026-04-14 10:54 33.19089 -15.89404 29702 ft 503 kts 40°
2026-04-14 10:54 33.21768 -15.86641 29857 ft 508 kts 40°
2026-04-14 10:54 33.24437 -15.83885 30111 ft 509 kts 40°
2026-04-14 10:54 33.27140 -15.81093 30357 ft 510 kts 40°
2026-04-14 10:55 33.29799 -15.78344 30539 ft 512 kts 40°
2026-04-14 10:55 33.32519 -15.75530 30764 ft 512 kts 40°
2026-04-14 10:55 33.35146 -15.72809 31637 ft 498 kts 40°
2026-04-14 10:55 33.37732 -15.70129 32469 ft 488 kts 40°
2026-04-14 10:56 33.40321 -15.67444 32642 ft 492 kts 40°
2026-04-14 10:56 33.43051 -15.65040 32710 ft 495 kts 29°
2026-04-14 10:56 33.46119 -15.63064 32848 ft 498 kts 27°
2026-04-14 10:56 33.49144 -15.61101 33001 ft 500 kts 27°
2026-04-14 10:57 33.52202 -15.59111 33227 ft 499 kts 27°
2026-04-14 10:57 33.55193 -15.57160 34064 ft 486 kts 27°
2026-04-14 10:57 33.58193 -15.55202 34395 ft 486 kts 27°
2026-04-14 10:58 33.64152 -15.51310 34614 ft 492 kts 27°
2026-04-14 10:58 33.67155 -15.49345 34763 ft 493 kts 27°
2026-04-14 10:58 33.70179 -15.47366 35322 ft 486 kts 27°
2026-04-14 10:59 33.76193 -15.43426 35224 ft 495 kts 27°
2026-04-14 10:59 33.79218 -15.41439 35372 ft 495 kts 27°
2026-04-14 10:59 33.82245 -15.39453 35245 ft 497 kts 27°
2026-04-14 11:00 33.88357 -15.35433 35304 ft 497 kts 27°
2026-04-14 11:00 33.94438 -15.31428 35301 ft 494 kts 28°
2026-04-14 11:01 34.00483 -15.27440 35294 ft 495 kts 28°
2026-04-14 11:01 34.06540 -15.23438 35299 ft 495 kts 28°
2026-04-14 11:02 34.12561 -15.19453 35289 ft 495 kts 28°
2026-04-14 11:02 34.18611 -15.15441 35292 ft 495 kts 28°
2026-04-14 11:03 34.24647 -15.11432 35294 ft 495 kts 28°
2026-04-14 11:03 34.30719 -15.07395 35294 ft 496 kts 28°
2026-04-14 11:04 34.36765 -15.03366 35297 ft 496 kts 28°
2026-04-14 11:04 34.42835 -14.99316 35300 ft 497 kts 28°
2026-04-14 11:05 34.48865 -14.95284 35296 ft 496 kts 28°
2026-04-14 11:05 34.54932 -14.91221 35296 ft 496 kts 28°
2026-04-14 11:06 34.60926 -14.87201 35296 ft 496 kts 28°
2026-04-14 11:06 34.67007 -14.83115 35298 ft 497 kts 28°
2026-04-14 11:07 34.73037 -14.79057 35299 ft 496 kts 28°
2026-04-14 11:07 34.79120 -14.74956 35298 ft 497 kts 28°
2026-04-14 11:08 34.85135 -14.70896 35296 ft 497 kts 28°
2026-04-14 11:08 34.91214 -14.66783 35296 ft 497 kts 28°
2026-04-14 11:09 34.97239 -14.62701 35299 ft 497 kts 28°
2026-04-14 11:09 35.03312 -14.58579 35300 ft 497 kts 28°
2026-04-14 11:10 35.12367 -14.52421 35296 ft 497 kts 28°
2026-04-14 11:10 35.18391 -14.48314 35299 ft 497 kts 28°
2026-04-14 11:11 35.24473 -14.44160 35299 ft 497 kts 28°
2026-04-14 11:11 35.30486 -14.40049 35300 ft 496 kts 28°
2026-04-14 11:12 35.36559 -14.35887 35299 ft 497 kts 28°
2026-04-14 11:12 35.42641 -14.31713 35296 ft 497 kts 28°
2026-04-14 11:13 35.48656 -14.27578 35297 ft 498 kts 28°
2026-04-14 11:13 35.54727 -14.23396 35297 ft 498 kts 28°
2026-04-14 11:14 35.60764 -14.19231 35300 ft 497 kts 28°
2026-04-14 11:14 35.66758 -14.15089 35303 ft 497 kts 28°
2026-04-14 11:15 35.72803 -14.10903 35307 ft 496 kts 28°
2026-04-14 11:15 35.78824 -14.06726 35311 ft 496 kts 28°
2026-04-14 11:16 35.84848 -14.02542 35316 ft 496 kts 28°
2026-04-14 11:16 35.90852 -13.98362 35313 ft 498 kts 28°
2026-04-14 11:17 35.96862 -13.94171 35316 ft 498 kts 28°
2026-04-14 11:17 36.02934 -13.89930 35314 ft 498 kts 28°
2026-04-14 11:18 36.08957 -13.85717 35317 ft 497 kts 28°
2026-04-14 11:18 36.14929 -13.81529 35315 ft 496 kts 28°
2026-04-14 11:19 36.20969 -13.77289 35317 ft 497 kts 28°
2026-04-14 11:19 36.26944 -13.73086 35315 ft 496 kts 28°
2026-04-14 11:20 36.32967 -13.68841 35316 ft 496 kts 27°
2026-04-14 11:20 36.38946 -13.64620 35314 ft 496 kts 27°
2026-04-14 11:21 36.44949 -13.60374 35305 ft 496 kts 27°
2026-04-14 11:21 36.50961 -13.56113 35304 ft 496 kts 27°
2026-04-14 11:22 36.56935 -13.51874 35300 ft 496 kts 27°
2026-04-14 11:22 36.62941 -13.47603 35301 ft 495 kts 27°
2026-04-14 11:23 36.68893 -13.43364 35300 ft 495 kts 27°
2026-04-14 11:23 36.74854 -13.39109 35299 ft 495 kts 27°
2026-04-14 11:24 36.80840 -13.34830 35297 ft 495 kts 28°
2026-04-14 11:24 36.86792 -13.30566 35294 ft 494 kts 28°
2026-04-14 11:25 36.92745 -13.26294 35294 ft 493 kts 28°
2026-04-14 11:25 36.98682 -13.22026 35295 ft 494 kts 27°
2026-04-14 11:26 37.04688 -13.17701 35295 ft 495 kts 27°
2026-04-14 11:26 37.10657 -13.13396 35295 ft 494 kts 28°
2026-04-14 11:27 37.16588 -13.09109 35296 ft 493 kts 28°
2026-04-14 11:27 37.22535 -13.04801 35297 ft 493 kts 28°
2026-04-14 11:28 37.28481 -13.00488 35296 ft 493 kts 28°
2026-04-14 11:28 37.34395 -12.96190 35297 ft 494 kts 27°
2026-04-14 11:29 37.40329 -12.91868 35297 ft 493 kts 27°
2026-04-14 11:29 37.46292 -12.87518 35297 ft 493 kts 27°
2026-04-14 11:30 37.52226 -12.83182 35297 ft 494 kts 27°
2026-04-14 11:30 37.58192 -12.78813 35297 ft 493 kts 27°
2026-04-14 11:31 37.64129 -12.74459 35297 ft 493 kts 27°
2026-04-14 11:31 37.70073 -12.70090 35297 ft 492 kts 27°
2026-04-14 11:32 37.76000 -12.65725 35297 ft 493 kts 27°
2026-04-14 11:32 37.81909 -12.61366 35297 ft 493 kts 27°
2026-04-14 11:33 37.87847 -12.56978 35297 ft 492 kts 27°
2026-04-14 11:34 37.96704 -12.50415 35298 ft 492 kts 27°
2026-04-14 11:34 38.02637 -12.46010 35297 ft 493 kts 27°
2026-04-14 11:35 38.08610 -12.41565 35296 ft 492 kts 27°
2026-04-14 11:35 38.14516 -12.37163 35298 ft 492 kts 27°
2026-04-14 11:36 38.20466 -12.32719 35289 ft 492 kts 27°
2026-04-14 11:36 38.26342 -12.28324 35289 ft 493 kts 27°
2026-04-14 11:37 38.32274 -12.23876 35285 ft 493 kts 27°
2026-04-14 11:37 38.38162 -12.19451 35284 ft 492 kts 27°
2026-04-14 11:38 38.44083 -12.14996 35281 ft 492 kts 27°
2026-04-14 11:38 38.50006 -12.10530 35277 ft 492 kts 27°
2026-04-14 11:39 38.55902 -12.06076 35275 ft 492 kts 27°
2026-04-14 11:39 38.61775 -12.01630 35275 ft 492 kts 27°
2026-04-14 11:40 38.67666 -11.97162 35275 ft 492 kts 27°
2026-04-14 11:40 38.73561 -11.92685 35273 ft 492 kts 27°
2026-04-14 11:41 38.79436 -11.88211 35274 ft 492 kts 27°
2026-04-14 11:41 38.85298 -11.83739 35275 ft 493 kts 27°
2026-04-14 11:42 38.91196 -11.79231 35276 ft 492 kts 27°
2026-04-14 11:42 38.97067 -11.74735 35276 ft 491 kts 27°
2026-04-14 11:43 39.02976 -11.70201 35272 ft 492 kts 27°
2026-04-14 11:43 39.08829 -11.65702 35270 ft 491 kts 27°
2026-04-14 11:44 39.14687 -11.61189 35277 ft 492 kts 27°
2026-04-14 11:44 39.20575 -11.56644 35277 ft 492 kts 27°
2026-04-14 11:45 39.26409 -11.52134 35271 ft 492 kts 27°
2026-04-14 11:45 39.32259 -11.47600 35270 ft 491 kts 27°
2026-04-14 11:46 39.38110 -11.43057 35268 ft 491 kts 27°
2026-04-14 11:46 39.43969 -11.38499 35269 ft 491 kts 27°
2026-04-14 11:47 39.49831 -11.33929 35267 ft 492 kts 27°
2026-04-14 11:47 39.55797 -11.29270 35261 ft 492 kts 27°
2026-04-14 11:48 39.61671 -11.24673 35263 ft 493 kts 27°
2026-04-14 11:48 39.67507 -11.20095 35261 ft 491 kts 27°
2026-04-14 11:49 39.73359 -11.15497 35258 ft 491 kts 27°
2026-04-14 11:49 39.79173 -11.10919 35258 ft 491 kts 27°
2026-04-14 11:50 39.85036 -11.06294 35260 ft 491 kts 27°
2026-04-14 11:50 39.90907 -11.01654 35260 ft 492 kts 27°
2026-04-14 11:51 39.99677 -10.94702 35253 ft 492 kts 27°
2026-04-14 11:51 40.05501 -10.90075 35256 ft 491 kts 27°
2026-04-14 11:52 40.11321 -10.85443 35256 ft 490 kts 27°
2026-04-14 11:52 40.17152 -10.80791 35257 ft 491 kts 27°
2026-04-14 11:53 40.22995 -10.76120 35253 ft 491 kts 27°
2026-04-14 11:53 40.28797 -10.71472 35252 ft 489 kts 27°
2026-04-14 11:54 40.34630 -10.66789 35256 ft 490 kts 27°
2026-04-14 11:54 40.40387 -10.62160 35259 ft 490 kts 27°
2026-04-14 11:55 40.46225 -10.57454 35261 ft 490 kts 27°
2026-04-14 11:55 40.52079 -10.52727 35264 ft 490 kts 27°
2026-04-14 11:56 40.57900 -10.48016 35269 ft 490 kts 27°
2026-04-14 11:56 40.63727 -10.43288 35260 ft 489 kts 27°
2026-04-14 11:57 40.69522 -10.38579 35252 ft 488 kts 27°
2026-04-14 11:57 40.75323 -10.33856 35240 ft 489 kts 28°
2026-04-14 11:58 40.81178 -10.29079 35231 ft 490 kts 28°
2026-04-14 11:58 40.86954 -10.24355 35232 ft 489 kts 28°
2026-04-14 11:59 40.92764 -10.19595 35232 ft 489 kts 28°
2026-04-14 11:59 40.98554 -10.14838 35233 ft 488 kts 28°
2026-04-14 12:00 41.04383 -10.10042 35233 ft 488 kts 28°
2026-04-14 12:00 41.10146 -10.05291 35223 ft 489 kts 28°
2026-04-14 12:01 41.16017 -10.00438 35230 ft 490 kts 28°
2026-04-14 12:01 41.21822 -9.95632 35230 ft 490 kts 28°
2026-04-14 12:02 41.27616 -9.90824 35240 ft 489 kts 28°
2026-04-14 12:02 41.33398 -9.86014 35238 ft 488 kts 28°
2026-04-14 12:03 41.39187 -9.81190 35243 ft 488 kts 28°
2026-04-14 12:03 41.44971 -9.76359 35245 ft 489 kts 28°
2026-04-14 12:04 41.50806 -9.71475 35244 ft 487 kts 28°
2026-04-14 12:04 41.56599 -9.66617 35253 ft 489 kts 28°
2026-04-14 12:05 41.62429 -9.61715 35246 ft 487 kts 28°
2026-04-14 12:05 41.68198 -9.56855 35242 ft 487 kts 28°
2026-04-14 12:06 41.74010 -9.51948 35249 ft 487 kts 28°
2026-04-14 12:06 41.79819 -9.47033 35231 ft 485 kts 28°
2026-04-14 12:07 41.85694 -9.42052 35229 ft 485 kts 28°
2026-04-14 12:07 41.91559 -9.37062 35227 ft 485 kts 28°
2026-04-14 12:08 41.96946 -9.30927 35239 ft 491 kts 38°
2026-04-14 12:08 42.02163 -9.24578 35229 ft 490 kts 38°
2026-04-14 12:09 42.07372 -9.18239 35219 ft 488 kts 38°
2026-04-14 12:09 42.12508 -9.11979 35226 ft 489 kts 38°
2026-04-14 12:10 42.17730 -9.05594 35232 ft 487 kts 38°
2026-04-14 12:10 42.22930 -8.99225 35230 ft 488 kts 38°
2026-04-14 12:11 42.28153 -8.92813 35242 ft 488 kts 38°
2026-04-14 12:11 42.33365 -8.86396 35239 ft 489 kts 38°
2026-04-14 12:12 42.38614 -8.79919 35228 ft 491 kts 38°
2026-04-14 12:12 42.43774 -8.73539 35230 ft 489 kts 38°
2026-04-14 12:13 42.48935 -8.67143 35220 ft 489 kts 38°
2026-04-14 12:13 42.54102 -8.60722 35223 ft 490 kts 38°
2026-04-14 12:14 42.59298 -8.54252 35223 ft 489 kts 38°
2026-04-14 12:14 42.64555 -8.47690 35211 ft 490 kts 38°
2026-04-14 12:15 42.69806 -8.41120 35210 ft 490 kts 38°
2026-04-14 12:15 42.75001 -8.34603 35216 ft 490 kts 38°
2026-04-14 12:16 42.80195 -8.28073 35211 ft 490 kts 39°
2026-04-14 12:16 42.85342 -8.21587 35207 ft 490 kts 39°
2026-04-14 12:17 42.90532 -8.15029 35210 ft 491 kts 38°
2026-04-14 12:17 42.95796 -8.08363 35199 ft 493 kts 39°
2026-04-14 12:18 43.01020 -8.01731 35186 ft 491 kts 38°
2026-04-14 12:18 43.06261 -7.95061 35176 ft 491 kts 38°
2026-04-14 12:19 43.11457 -7.88432 35205 ft 491 kts 38°
2026-04-14 12:19 43.16686 -7.81748 35215 ft 492 kts 38°
2026-04-14 12:20 43.21946 -7.75002 35209 ft 490 kts 38°
2026-04-14 12:20 43.27102 -7.68376 35202 ft 490 kts 38°
2026-04-14 12:21 43.32288 -7.61696 35198 ft 489 kts 38°
2026-04-14 12:21 43.37482 -7.54988 35202 ft 489 kts 38°
2026-04-14 12:22 43.42673 -7.48269 35197 ft 490 kts 38°
2026-04-14 12:22 43.47769 -7.41655 35201 ft 489 kts 38°
2026-04-14 12:23 43.52938 -7.34929 35182 ft 491 kts 39°
2026-04-14 12:23 43.58046 -7.28269 35177 ft 489 kts 39°
2026-04-14 12:24 43.63231 -7.21490 35169 ft 489 kts 39°
2026-04-14 12:24 43.68383 -7.14734 35163 ft 488 kts 39°
2026-04-14 12:25 43.73539 -7.07962 35177 ft 489 kts 38°
2026-04-14 12:25 43.78686 -7.01180 35168 ft 489 kts 39°
2026-04-14 12:26 43.83793 -6.94436 35170 ft 488 kts 38°
2026-04-14 12:26 43.88915 -6.87656 35157 ft 489 kts 38°
2026-04-14 12:27 43.94046 -6.80847 35148 ft 488 kts 38°
2026-04-14 12:27 43.99121 -6.74094 35154 ft 488 kts 38°
2026-04-14 12:28 44.04190 -6.67334 35155 ft 486 kts 38°
2026-04-14 12:28 44.09130 -6.60727 35152 ft 486 kts 39°
2026-04-14 12:29 44.14184 -6.53954 35153 ft 486 kts 38°
2026-04-14 12:29 44.19339 -6.47026 35155 ft 483 kts 38°
2026-04-14 12:30 44.24354 -6.40271 35151 ft 486 kts 38°
2026-04-14 12:30 44.29439 -6.33402 35147 ft 485 kts 39°
2026-04-14 12:31 44.34526 -6.26514 35149 ft 485 kts 39°
2026-04-14 12:31 44.39544 -6.19700 35144 ft 485 kts 39°
2026-04-14 12:32 44.44573 -6.12859 35141 ft 484 kts 39°
2026-04-14 12:32 44.49656 -6.05922 35142 ft 485 kts 39°
2026-04-14 12:33 44.54625 -5.99126 35142 ft 484 kts 39°
2026-04-14 12:33 44.59635 -5.92255 35142 ft 483 kts 39°
2026-04-14 12:34 44.64617 -5.85406 35134 ft 484 kts 39°
2026-04-14 12:34 44.69588 -5.78602 35144 ft 482 kts 38°
2026-04-14 12:35 44.74560 -5.71798 35141 ft 482 kts 38°
2026-04-14 12:35 44.79566 -5.64926 35144 ft 482 kts 38°
2026-04-14 12:36 44.84569 -5.58042 35143 ft 481 kts 38°
2026-04-14 12:36 44.89536 -5.51192 35135 ft 482 kts 38°
2026-04-14 12:37 44.94540 -5.44271 35128 ft 481 kts 38°
2026-04-14 12:37 44.99439 -5.37479 35132 ft 481 kts 38°
2026-04-14 12:38 45.06716 -5.27357 35116 ft 480 kts 39°
2026-04-14 12:39 45.11605 -5.20536 35133 ft 481 kts 39°
2026-04-14 12:39 45.16527 -5.13652 35130 ft 481 kts 39°
2026-04-14 12:40 45.21456 -5.06738 35132 ft 479 kts 39°
2026-04-14 12:40 45.26359 -4.99845 35134 ft 481 kts 39°
2026-04-14 12:41 45.31299 -4.92879 35127 ft 480 kts 39°
2026-04-14 12:41 45.36164 -4.86006 35123 ft 479 kts 38°
2026-04-14 12:42 45.40996 -4.79157 35120 ft 478 kts 39°
2026-04-14 12:42 45.45887 -4.72211 35117 ft 478 kts 39°
2026-04-14 12:43 45.50723 -4.65322 35112 ft 478 kts 39°
2026-04-14 12:43 45.55547 -4.58436 35117 ft 478 kts 39°
2026-04-14 12:44 45.60357 -4.51548 35120 ft 477 kts 39°
2026-04-14 12:44 45.65154 -4.44663 35122 ft 475 kts 38°
2026-04-14 12:45 45.72332 -4.34326 35115 ft 476 kts 39°
2026-04-14 12:45 45.77174 -4.27330 35116 ft 476 kts 39°
2026-04-14 12:46 45.81989 -4.20359 35105 ft 476 kts 39°
2026-04-14 12:46 45.86853 -4.13295 35102 ft 475 kts 39°
2026-04-14 12:47 45.91636 -4.06331 35105 ft 475 kts 39°
2026-04-14 12:47 45.96423 -3.99342 35106 ft 474 kts 39°
2026-04-14 12:48 46.01185 -3.92374 35106 ft 475 kts 39°
2026-04-14 12:48 46.05936 -3.85401 35106 ft 473 kts 39°
2026-04-14 12:49 46.10660 -3.78449 35110 ft 473 kts 39°
2026-04-14 12:49 46.15433 -3.71407 35120 ft 472 kts 39°
2026-04-14 12:50 46.22534 -3.60898 35120 ft 473 kts 39°
2026-04-14 12:51 46.27334 -3.53772 35119 ft 475 kts 39°
2026-04-14 12:51 46.32090 -3.46688 35127 ft 473 kts 39°
2026-04-14 12:52 46.36836 -3.39605 35123 ft 471 kts 39°
2026-04-14 12:52 46.41564 -3.32527 35105 ft 473 kts 39°
2026-04-14 12:53 46.46358 -3.25333 35121 ft 474 kts 40°
2026-04-14 12:53 46.51169 -3.18091 35127 ft 471 kts 39°
2026-04-14 12:54 46.55927 -3.10908 35114 ft 472 kts 40°
2026-04-14 12:54 46.58035 -3.06866 35099 ft 484 kts 53°
2026-04-14 12:54 46.59770 -3.02380 35149 ft 485 kts 53°
2026-04-14 12:55 46.63328 -2.93451 35109 ft 484 kts 53°
2026-04-14 12:55 46.66861 -2.84620 35109 ft 484 kts 53°
2026-04-14 12:56 46.70422 -2.75698 35130 ft 485 kts 53°
2026-04-14 12:56 46.73906 -2.66940 35128 ft 483 kts 52°
2026-04-14 12:57 46.77352 -2.58250 35133 ft 482 kts 53°
2026-04-14 12:57 46.80750 -2.49653 35125 ft 481 kts 53°
2026-04-14 12:58 46.84146 -2.41035 35121 ft 480 kts 53°
2026-04-14 12:58 46.87607 -2.32497 35115 ft 481 kts 51°
2026-04-14 12:59 46.91200 -2.24010 35116 ft 482 kts 51°
2026-04-14 12:59 46.94807 -2.15443 35123 ft 480 kts 51°
2026-04-14 13:00 46.98423 -2.06825 35131 ft 481 kts 51°
2026-04-14 13:00 47.01984 -1.98108 35122 ft 481 kts 54°
2026-04-14 13:01 47.05362 -1.89310 35127 ft 479 kts 53°
2026-04-14 13:01 47.08760 -1.80467 35130 ft 478 kts 53°
2026-04-14 13:02 47.12075 -1.71814 35162 ft 478 kts 53°
2026-04-14 13:02 47.15440 -1.63006 35146 ft 479 kts 53°
2026-04-14 13:03 47.19120 -1.54515 35151 ft 475 kts 49°
2026-04-14 13:03 47.22922 -1.46087 35146 ft 474 kts 49°
2026-04-14 13:04 47.26631 -1.37802 35146 ft 472 kts 49°
2026-04-14 13:04 47.30348 -1.29469 35146 ft 472 kts 49°
2026-04-14 13:05 47.34066 -1.21107 35151 ft 471 kts 50°
2026-04-14 13:05 47.37808 -1.12665 35151 ft 468 kts 49°
2026-04-14 13:06 47.41460 -1.04402 35151 ft 470 kts 49°
2026-04-14 13:06 47.45152 -0.96026 35151 ft 470 kts 50°
2026-04-14 13:07 47.48824 -0.87664 35150 ft 470 kts 49°
2026-04-14 13:07 47.52491 -0.79292 35155 ft 468 kts 49°
2026-04-14 13:08 47.56146 -0.70922 35154 ft 465 kts 49°
2026-04-14 13:08 47.59769 -0.62594 35157 ft 467 kts 49°
2026-04-14 13:09 47.63405 -0.54214 35162 ft 467 kts 49°
2026-04-14 13:09 47.67048 -0.45794 35164 ft 467 kts 49°
2026-04-14 13:10 47.70678 -0.37380 35164 ft 466 kts 49°
2026-04-14 13:10 47.74307 -0.28940 35162 ft 465 kts 50°
2026-04-14 13:11 47.77948 -0.20443 35157 ft 463 kts 50°
2026-04-14 13:11 47.81523 -0.12077 35152 ft 466 kts 50°
2026-04-14 13:12 47.85126 -0.03615 35148 ft 462 kts 50°
2026-04-14 13:12 47.88676 0.04745 35151 ft 462 kts 50°
2026-04-14 13:13 47.92249 0.13184 35157 ft 463 kts 50°
2026-04-14 13:13 47.95812 0.21627 35153 ft 464 kts 50°
2026-04-14 13:14 47.99376 0.30097 35152 ft 461 kts 49°
2026-04-14 13:14 48.02931 0.38575 35145 ft 463 kts 49°
2026-04-14 13:15 48.06491 0.47091 35171 ft 460 kts 50°
2026-04-14 13:15 48.10054 0.55641 35048 ft 458 kts 49°
2026-04-14 13:15 48.11807 0.59858 35228 ft 460 kts 49°
2026-04-14 13:16 48.13727 0.63907 35118 ft 457 kts 42°
2026-04-14 13:16 48.17801 0.71714 35161 ft 459 kts 44°
2026-04-14 13:17 48.21875 0.79714 35162 ft 458 kts 45°
2026-04-14 13:17 48.25897 0.87648 35151 ft 458 kts 45°
2026-04-14 13:18 48.29920 0.95614 35152 ft 457 kts 44°
2026-04-14 13:18 48.33934 1.03585 35158 ft 456 kts 44°
2026-04-14 13:19 48.37934 1.11549 35157 ft 456 kts 45°
2026-04-14 13:19 48.41942 1.19551 35163 ft 459 kts 45°
2026-04-14 13:20 48.45931 1.27543 35169 ft 455 kts 44°
2026-04-14 13:20 48.49882 1.35481 35174 ft 457 kts 45°
2026-04-14 13:21 48.53880 1.43532 35163 ft 459 kts 45°
2026-04-14 13:21 48.57886 1.51628 35163 ft 455 kts 45°
2026-04-14 13:22 48.61824 1.59610 35167 ft 457 kts 45°
2026-04-14 13:22 48.65365 1.68237 35144 ft 476 kts 62°
2026-04-14 13:23 48.67633 1.78039 35162 ft 477 kts 62°
2026-04-14 13:23 48.69982 1.87796 35166 ft 474 kts 62°
2026-04-14 13:24 48.72315 1.97470 35168 ft 476 kts 62°
2026-04-14 13:24 48.75768 2.12027 35171 ft 478 kts 65°
2026-04-14 13:25 48.77541 2.22146 35184 ft 483 kts 67°
2026-04-14 13:26 48.81152 2.42329 35178 ft 482 kts 66°
2026-04-14 13:26 48.82940 2.52385 35178 ft 480 kts 67°
2026-04-14 13:27 48.84697 2.62310 35180 ft 481 kts 67°
2026-04-14 13:27 48.86470 2.72395 35177 ft 484 kts 68°
2026-04-14 13:28 48.88222 2.82411 35173 ft 485 kts 68°
2026-04-14 13:28 48.89960 2.92398 35182 ft 484 kts 68°
2026-04-14 13:29 48.91693 3.02419 35168 ft 484 kts 68°
2026-04-14 13:29 48.93421 3.12466 35168 ft 485 kts 68°
2026-04-14 13:30 48.95121 3.22417 35168 ft 482 kts 68°
2026-04-14 13:30 48.96804 3.32316 35162 ft 482 kts 68°
2026-04-14 13:31 48.98495 3.42312 35166 ft 486 kts 68°
2026-04-14 13:31 49.00175 3.52313 35163 ft 487 kts 68°
2026-04-14 13:32 49.01865 3.62427 35165 ft 488 kts 69°
2026-04-14 13:32 49.03544 3.72541 35159 ft 487 kts 70°
2026-04-14 13:33 49.05220 3.82693 35164 ft 488 kts 70°
2026-04-14 13:33 49.06889 3.92858 35164 ft 489 kts 70°
2026-04-14 13:34 49.09367 4.08074 35165 ft 489 kts 70°
2026-04-14 13:35 49.11006 4.18223 35185 ft 490 kts 70°
2026-04-14 13:35 49.12645 4.28417 35182 ft 490 kts 70°
2026-04-14 13:36 49.14410 4.38471 35170 ft 482 kts 62°
2026-04-14 13:36 49.17059 4.47877 35182 ft 480 kts 61°
2026-04-14 13:37 49.19658 4.57426 35176 ft 479 kts 61°
2026-04-14 13:37 49.22234 4.66971 35172 ft 480 kts 62°
2026-04-14 13:38 49.24801 4.76525 35174 ft 482 kts 62°
2026-04-14 13:38 49.27383 4.86177 35167 ft 482 kts 62°
2026-04-14 13:39 49.29964 4.95861 35168 ft 481 kts 62°
2026-04-14 13:39 49.32515 5.05472 35169 ft 480 kts 62°
2026-04-14 13:40 49.35066 5.15126 35170 ft 482 kts 63°
2026-04-14 13:40 49.37633 5.24887 35161 ft 481 kts 63°
2026-04-14 13:41 49.40164 5.34543 35164 ft 481 kts 62°
2026-04-14 13:41 49.42694 5.44242 35167 ft 481 kts 63°
2026-04-14 13:42 49.45201 5.53886 35166 ft 482 kts 63°
2026-04-14 13:42 49.47723 5.63633 35161 ft 481 kts 63°
2026-04-14 13:43 49.50236 5.73367 35165 ft 480 kts 63°
2026-04-14 13:43 49.51899 5.77895 35138 ft 469 kts 47°
2026-04-14 13:43 49.54276 5.81447 35165 ft 458 kts 32°
2026-04-14 13:44 49.59833 5.86561 35163 ft 458 kts 28°
2026-04-14 13:44 49.65367 5.92035 35171 ft 458 kts 29°
2026-04-14 13:45 49.70855 5.97541 35161 ft 459 kts 29°
2026-04-14 13:45 49.76341 6.03067 35157 ft 458 kts 29°
2026-04-14 13:46 49.81694 6.08477 35017 ft 452 kts 29°
2026-04-14 13:46 49.84317 6.11132 34257 ft 449 kts 29°
2026-04-14 13:46 49.86956 6.13638 33411 ft 441 kts 23°
2026-04-14 13:46 49.89758 6.15565 32657 ft 434 kts 20°
2026-04-14 13:47 49.92417 6.17679 31742 ft 438 kts 29°
2026-04-14 13:47 49.94752 6.20850 30106 ft 459 kts 45°
2026-04-14 13:47 49.96457 6.25062 29186 ft 463 kts 62°
2026-04-14 13:47 49.97375 6.29924 28407 ft 464 kts 75°
2026-04-14 13:48 49.97945 6.34924 27578 ft 461 kts 76°
2026-04-14 13:48 49.98463 6.39768 26804 ft 457 kts 77°
2026-04-14 13:48 49.98973 6.44625 26046 ft 452 kts 77°
2026-04-14 13:48 49.99477 6.49466 25268 ft 448 kts 78°
2026-04-14 13:49 49.99969 6.54237 24389 ft 446 kts 78°
2026-04-14 13:49 50.00467 6.59063 23234 ft 450 kts 78°
2026-04-14 13:49 50.00957 6.63874 22430 ft 444 kts 79°
2026-04-14 13:49 50.01436 6.68584 21709 ft 438 kts 79°
2026-04-14 13:50 50.01912 6.73271 20906 ft 433 kts 79°
2026-04-14 13:50 50.02378 6.77885 20130 ft 429 kts 79°
2026-04-14 13:50 50.02843 6.82505 19380 ft 423 kts 79°
2026-04-14 13:50 50.03301 6.87069 18610 ft 419 kts 79°
2026-04-14 13:51 50.03746 6.91530 17866 ft 415 kts 79°
2026-04-14 13:51 50.04192 6.96012 17119 ft 411 kts 79°
2026-04-14 13:51 50.04626 7.00396 16412 ft 406 kts 79°
2026-04-14 13:51 50.05064 7.04824 15724 ft 401 kts 80°
2026-04-14 13:52 50.05483 7.09096 15061 ft 395 kts 79°
2026-04-14 13:52 50.05891 7.13271 14391 ft 391 kts 80°
2026-04-14 13:52 50.06297 7.17435 13712 ft 387 kts 79°
2026-04-14 13:52 50.06704 7.21621 13021 ft 383 kts 80°
2026-04-14 13:53 50.07104 7.25747 12342 ft 380 kts 80°
2026-04-14 13:53 50.07497 7.29815 11675 ft 376 kts 80°
2026-04-14 13:53 50.07880 7.33801 11019 ft 373 kts 80°
2026-04-14 13:53 50.08266 7.37839 10323 ft 370 kts 81°
2026-04-14 13:54 50.08640 7.41762 9699 ft 367 kts 81°
2026-04-14 13:54 50.09011 7.45685 9087 ft 362 kts 81°
2026-04-14 13:54 50.09377 7.49566 8497 ft 358 kts 81°
2026-04-14 13:54 50.09737 7.53388 7919 ft 353 kts 80°
2026-04-14 13:55 50.10090 7.57143 7344 ft 349 kts 80°
2026-04-14 13:55 50.10449 7.60978 7103 ft 349 kts 80°
2026-04-14 13:55 50.10799 7.64720 7228 ft 349 kts 80°
2026-04-14 13:55 50.10976 7.68565 7119 ft 349 kts 94°
2026-04-14 13:56 50.10298 7.72192 7141 ft 351 kts 116°
2026-04-14 13:56 50.08780 7.75293 7158 ft 353 kts 134°
2026-04-14 13:56 50.07039 7.78026 7154 ft 353 kts 134°
2026-04-14 13:56 50.05286 7.80781 7150 ft 354 kts 134°
2026-04-14 13:57 50.03489 7.83615 7038 ft 353 kts 133°
2026-04-14 13:57 50.01808 7.86454 6522 ft 346 kts 126°
2026-04-14 13:57 50.00385 7.89577 5751 ft 347 kts 124°
2026-04-14 13:57 49.99021 7.92557 5235 ft 342 kts 123°
2026-04-14 13:58 49.97790 7.95707 4870 ft 337 kts 110°
2026-04-14 13:58 49.97123 7.99146 4388 ft 330 kts 103°
2026-04-14 13:58 49.96502 8.02612 3867 ft 329 kts 103°
2026-04-14 13:58 49.95893 8.06002 4046 ft 323 kts 103°
2026-04-14 13:59 49.95294 8.09332 3938 ft 308 kts 103°
2026-04-14 13:59 49.94733 8.12445 3943 ft 290 kts 103°
2026-04-14 13:59 49.94210 8.15385 3951 ft 273 kts 100°
2026-04-14 13:59 49.94321 8.18191 3943 ft 252 kts 69°
2026-04-14 14:00 49.94902 8.20705 3961 ft 238 kts 68°
2026-04-14 14:00 49.95451 8.23058 3946 ft 223 kts 67°
2026-04-14 14:00 49.95949 8.25154 3919 ft 191 kts 66°
2026-04-14 14:00 49.96377 8.26959 3901 ft 167 kts 67°
2026-04-14 14:01 49.96776 8.28624 3743 ft 162 kts 66°
2026-04-14 14:01 49.97179 8.30269 3496 ft 160 kts 66°
2026-04-14 14:01 49.97576 8.31901 3269 ft 160 kts 66°
2026-04-14 14:01 49.97968 8.33511 3049 ft 159 kts 66°
2026-04-14 14:02 49.98366 8.35158 2822 ft 159 kts 66°
2026-04-14 14:02 49.98753 8.36762 2603 ft 158 kts 67°
2026-04-14 14:02 49.99143 8.38378 2380 ft 158 kts 66°
2026-04-14 14:02 49.99527 8.39977 2163 ft 160 kts 66°
2026-04-14 14:03 49.99915 8.41589 1944 ft 159 kts 66°
2026-04-14 14:03 50.00304 8.43204 1724 ft 158 kts 66°
2026-04-14 14:03 50.00676 8.44752 1493 ft 143 kts 66°
2026-04-14 14:03 50.01023 8.46203 1299 ft 138 kts 66°
2026-04-14 14:04 50.01356 8.47594 1134 ft 135 kts 67°
2026-04-14 14:04 50.01677 8.48930 961 ft 136 kts 67°
2026-04-14 14:04 50.02017 8.50345 777 ft 139 kts 67°
2026-04-14 14:04 50.02354 8.51775 626 ft 141 kts 66°
2026-04-14 14:05 50.02690 8.53222 398 ft 141 kts 66°
2026-04-14 14:05 50.03036 8.54586 336 ft 124 kts 69°
2026-04-14 14:05 50.03305 8.55743 341 ft 100 kts 73°
2026-04-14 14:05 50.03518 8.56653 346 ft 72 kts 67°
2026-04-14 14:06 50.03644 8.57150 348 ft 42 kts 68°
2026-04-14 14:06 50.03761 8.57618 359 ft 44 kts 71°
2026-04-14 14:06 50.03843 8.57930 367 ft 21 kts 40°
2026-04-14 14:06 50.03975 8.57896 368 ft 19 kts 340°
2026-04-14 14:07 50.04077 8.57925 368 ft 16 kts 58°
2026-04-14 14:07 50.04113 8.58075 372 ft 13 kts 69°
2026-04-14 14:07 50.04181 8.58165 372 ft 12 kts 27°
2026-04-14 14:07 50.04259 8.58203 373 ft 10 kts
2026-04-14 14:08 50.04326 8.58179 375 ft 9 kts 342°
2026-04-14 14:08 50.04402 8.58138 376 ft 13 kts 340°
2026-04-14 14:08 50.04496 8.58083 378 ft 15 kts 339°
2026-04-14 14:08 50.04529 8.57963 377 ft 16 kts 252°
2026-04-14 14:09 50.04484 8.57765 373 ft 22 kts 249°
2026-04-14 14:09 50.04423 8.57509 370 ft 28 kts 249°
2026-04-14 14:09 50.04350 8.57210 372 ft 26 kts 250°
2026-04-14 14:09 50.04287 8.56942 371 ft 28 kts 250°
2026-04-14 14:10 50.04213 8.56632 364 ft 31 kts 250°
2026-04-14 14:10 50.04158 8.56403 362 ft 11 kts 249°
2026-04-14 14:10 50.04166 8.56294 362 ft 10 kts 325°
2026-04-14 14:10 50.04227 8.56247 363 ft 9 kts 339°
2026-04-14 14:11 50.04278 8.56205 364 ft 7 kts 305°
2026-04-14 14:11 50.04290 8.56120 364 ft 8 kts 287°
2026-04-14 14:11 50.04323 8.56067 365 ft 6 kts 333°
2026-04-14 14:11 50.04364 8.56043 366 ft 6 kts 339°
2026-04-14 14:12 50.04406 8.56038 367 ft 6 kts 21°
2026-04-14 14:12 50.04442 8.56085 367 ft 7 kts 55°
2026-04-14 14:12 50.04465 8.56168 368 ft 9 kts 69°
2026-04-14 14:12 50.04490 8.56273 368 ft 11 kts 69°
2026-04-14 14:13 50.04519 8.56390 370 ft 12 kts 64°
2026-04-14 14:13 50.04587 8.56465 371 ft 12 kts 25°
2026-04-14 14:13 50.04668 8.56524 372 ft 12 kts 24°
2026-04-14 14:13 50.04713 8.56577 374 ft 5 kts 48°
2026-04-14 14:14 50.04736 8.56613 375 ft 3 kts 32°
2026-04-14 14:14 50.04764 8.56615 375 ft 4 kts 334°
2026-04-14 14:14 50.04785 8.56599 375 ft 3 kts 334°
2026-04-14 14:14 50.04797 8.56591 375 ft 0 kts 338°
2026-04-14 14:15 50.04800 8.56589 375 ft 0 kts 338°